Hourly Data Report for April 17, 2021

ALGONQUIN PARK EAST GATE
ONTARIO
Current Station Operator: ECCC - MSC

45°32'00.000" N
78°16'00.000" W
397.00 m
6080192
71581
TNK

Download Data

Hourly Data (April 2021)
Hourly Data Report for April 17, 2021
TIME
LST
Temp Definition
°C
Dew Point Definition
°C
Rel Hum Definition
%
Precip. Amount Definition
mm

Wind Dir Definition
10's deg

Wind Spd Definition
km/h
Visibility Definition
km
Stn Press Definition
kPa
Hmdx Definition


Wind Chill Definition


Weather Definition


00:00 4.8 3.4 90 0.0 31 2   96.24     LegendNANA
01:00 4.9 3.4 90 0.0 29 2   96.21     LegendNANA
02:00 4.0 2.9 92 0.0 33 1   96.21     LegendNANA
03:00 4.5 3.3 92 0.0 31 1   96.18     LegendNANA
04:00 4.5 3.1 91 0.0 36 2   96.17     LegendNANA
05:00 4.4 3.0 90 0.0 2 3   96.17     LegendNANA
06:00 4.5 2.6 88 0.0 3 2   96.21     LegendNANA
07:00 4.7 2.6 87 0.0 36 2   96.23     LegendNANA
08:00 5.1 2.7 84 0.0 1 1   96.24     LegendNANA
09:00 5.5 2.8 83 0.0 34 2   96.25     LegendNANA
10:00 5.8 2.9 81 0.0 35 3   96.23     LegendNANA
11:00 6.7 3.2 78 0.0 28 3   96.23     LegendNANA
12:00 7.5 3.4 75 0.0 22 4   96.20     LegendNANA
13:00 8.2 3.1 70 0.0 34 4   96.18     LegendNANA
14:00 9.0 1.6 60 0.0 32 5   96.17     LegendNANA
15:00 9.6 2.2 60 0.0 1 4   96.13     LegendNANA
16:00 9.9 2.2 59 0.0 1 4   96.14     LegendNANA
17:00 9.8 0.2 52 0.0 31 4   96.14     LegendNANA
18:00 9.3 2.5 63 0.0 33 1   96.14     LegendNANA
19:00 7.6 3.8 77 0.0   0   96.13     LegendNANA
20:00 4.9 2.1 82 0.0   0   96.15     LegendNANA
21:00 3.4 1.9 90 0.0   0   96.16     LegendNANA
22:00 2.3 1.0 91 0.0   0   96.15     LegendNANA
23:00 1.1 -0.1 92 0.0   0   96.14     LegendNANA

Notes on Data Quality.

Legend

  • E = Estimated
  • M = Missing
  • NA = Not Available*
  • [empty] = Indicates an unobserved value
Date modified: